カタログに戻る

STARLINK-32223

運用中通信VLEO
NORAD 60373·PAYLOAD·🇺🇸 United States

打ち上げ Aug 4, 2024 から Vandenberg Space Force Base

Loading…

次のパス (今後24時間)

TLE

最新Source: CelesTrak SupGP

元期: Sep 14, 2026, 22:59 UTC

1 60373C 24138U   26257.95812500 -.00080222  00000+0 -25797-2 0  2573
2 60373  53.1573 149.3400 0001314  86.3661 193.2935 15.31742322    18

AllMySatでSTARLINK-32223をリアルタイム追跡

Download on the App Store